Tracking 31027 objects as of 19-Jul-2025
HD Live streaming from Space Station
objects crossing your sky now

CZ-6 R/B

Track CZ-6 R/B now!
10-day predictions


NORAD ID: 44784
Int'l Code: 2019-076F
Perigee: 776.0 km
Apogee: 902.7 km
Inclination: 45.0 °
Period: 101.6 minutes
Semi major axis: 7210 km
RCS: Unknown
Launch date: November 13, 2019
Source: People's Republic of China (PRC)
Launch site: Taiyaun Space Center, China (TSC)

Note: This is a ROCKET BODY
Your satellite tracking list
STARLINK-2062
Track 1 satellite(s)




NASA's NSSDC Master Catalog

Two Line Element Set (TLE):
1 44784U 19076F   25199.47551142 -.00000366  00000-0 -10720-3 0  9995
2 44784  45.0087 343.0554 0087869 353.6899   6.2829 14.17976794294320
Source of the keplerian elements: AFSPC